Albion, NE

4:19 AM CDT on March 30, 2017 (GMT -0500)
Albion Municipal

Weather History for KBVN - May, 2013

Change the Weather History Date:

Thursday, May 2, 2013

  Actual Average (KOFK) Record (KOFK)
Temperature  
Mean Temperature 45 °F -  
Max Temperature 54 °F 66 °F 95 °F (1955)
Min Temperature 36 °F 42 °F 21 °F (1909)
Degree Days  
Heating Degree Days 20    
Moisture  
Dew Point 29 °F    
Average Humidity 59    
Maximum Humidity 78    
Minimum Humidity 32    
Precipitation  
Precipitation 0.00 in - - ()
Sea Level Pressure  
Sea Level Pressure 30.53 in    
Wind  
Wind Speed 12 mph (North)    
Max Wind Speed 23 mph    
Max Gust Speed 30 mph    
Visibility 10 miles    
Events      
Averages and records for this station are not official NWS values.
T = Trace of Precipitation, MM = Missing Value Source: NWS Daily Summary

Daily Weather History Graph

Daily Weather History Graph

Search for Another Location

Airport or City:

Trip Planner

Search our weather history database for the weather conditions in past years. The results will help you decide how hot, cold, wet, or windy it might be!

Date:

Astronomy

May. 02, 2013 Rise Set
Actual Time 6:27 AM CDT 8:31 PM CDT
Civil Twilight 5:56 AM CDT 9:02 PM CDT
Nautical Twilight 5:19 AM CDT 9:39 PM CDT
Astronomical Twilight 4:38 AM CDT 10:20 PM CDT
Moon 2:21 AM CDT (5/2) 1:16 PM CDT (5/2)
Length of Visible Light 15h 05m
Length of Day
14h 04m
Waning Gibbous, 47% of the Moon is Illuminated
May 2
Waning Gibbous
May 9
New
May 17
First Quarter
May 24
Full
May 31
Last Quarter

Hourly Weather History & Observations

Time (CDT) Temp. Windchill Dew Point Humidity Pressure Visibility Wind Dir Wind Speed Gust Speed Precip Events Conditions
12:15 AM 38.7 °F 31.8 °F 30.4 °F 72% 30.49 in 10.0 mi North 10.4 mph - N/A   Overcast
12:35 AM 38.7 °F 32.4 °F 30.6 °F 73% 30.50 in 10.0 mi North 9.2 mph - N/A   Overcast
12:55 AM 38.5 °F 31.6 °F 30.9 °F 74% 30.50 in 10.0 mi North 10.4 mph - N/A   Overcast
1:15 AM 38.5 °F 31.6 °F 30.9 °F 74% 30.50 in 10.0 mi North 10.4 mph - N/A   Overcast
1:35 AM 38.8 °F 32.1 °F 30.7 °F 73% 30.50 in 10.0 mi North 10.4 mph 16.1 mph N/A   Overcast
1:55 AM 38.8 °F 31.2 °F 30.6 °F 72% 30.50 in 10.0 mi North 12.7 mph - N/A   Overcast
2:15 AM 38.7 °F 32.4 °F 30.7 °F 73% 30.51 in 10.0 mi North 9.2 mph - N/A   Overcast
2:35 AM 38.3 °F 31.4 °F 30.9 °F 75% 30.51 in 10.0 mi North 10.4 mph 16.1 mph N/A   Overcast
2:55 AM 38.5 °F 30.3 °F 30.7 °F 74% 30.49 in 10.0 mi North 13.8 mph - N/A   Overcast
3:15 AM 38.8 °F 32.1 °F 30.7 °F 73% 30.51 in 10.0 mi North 10.4 mph - N/A   Overcast
3:35 AM 38.7 °F 31.8 °F 30.9 °F 74% 30.51 in 10.0 mi North 10.4 mph 17.3 mph N/A   Overcast
3:55 AM 38.3 °F 31.9 °F 30.9 °F 75% 30.51 in 10.0 mi North 9.2 mph - N/A   Overcast
4:15 AM 37.9 °F 31.5 °F 31.1 °F 76% 30.53 in 10.0 mi North 9.2 mph - N/A   Overcast
4:35 AM 38.3 °F 31.9 °F 30.6 °F 74% 30.54 in 10.0 mi NNW 9.2 mph - N/A   Overcast
4:55 AM 37.8 °F 31.8 °F 30.9 °F 76% 30.55 in 10.0 mi NNW 8.1 mph - N/A   Overcast
5:15 AM 37.4 °F 31.4 °F 31.1 °F 78% 30.56 in 10.0 mi NNW 8.1 mph - N/A   Overcast
5:35 AM 37.4 °F 29.8 °F 30.9 °F 77% 30.55 in 10.0 mi North 11.5 mph - N/A   Overcast
5:55 AM 37.4 °F 30.3 °F 30.0 °F 75% 30.55 in 10.0 mi North 10.4 mph 16.1 mph N/A   Overcast
6:15 AM 37.4 °F 29.8 °F 29.8 °F 74% 30.56 in 10.0 mi North 11.5 mph - N/A   Overcast
6:35 AM 37.0 °F 29.8 °F 29.3 °F 74% 30.57 in 10.0 mi North 10.4 mph 16.1 mph N/A   Overcast
6:55 AM 36.9 °F 29.6 °F 30.4 °F 77% 30.58 in 10.0 mi NNW 10.4 mph - N/A   Overcast
7:15 AM 37.2 °F 29.6 °F 29.5 °F 74% 30.60 in 10.0 mi North 11.5 mph - N/A   Overcast
7:35 AM 37.0 °F 29.8 °F 30.0 °F 76% 30.60 in 10.0 mi NNW 10.4 mph 17.3 mph N/A   Overcast
7:55 AM 37.4 °F 28.9 °F 29.5 °F 73% 30.61 in 10.0 mi North 13.8 mph - N/A   Overcast
8:15 AM 37.4 °F 28.5 °F 29.3 °F 73% 30.60 in 10.0 mi North 15.0 mph 19.6 mph N/A   Overcast
8:35 AM 37.4 °F 29.3 °F 29.7 °F 74% 30.61 in 10.0 mi North 12.7 mph 17.3 mph N/A   Overcast
8:55 AM 37.9 °F 29.6 °F 29.3 °F 71% 30.63 in 10.0 mi North 13.8 mph 17.3 mph N/A   Overcast
9:15 AM 38.8 °F 31.6 °F 28.6 °F 67% 30.62 in 10.0 mi North 11.5 mph 20.7 mph N/A   Mostly Cloudy
9:35 AM 39.4 °F 31.4 °F 29.1 °F 67% 30.62 in 10.0 mi North 13.8 mph 19.6 mph N/A   Mostly Cloudy
9:55 AM 39.7 °F 31.9 °F 28.4 °F 64% 30.61 in 10.0 mi North 13.8 mph 17.3 mph N/A   Scattered Clouds
10:15 AM 39.9 °F 32.1 °F 28.2 °F 63% 30.61 in 10.0 mi North 13.8 mph 21.9 mph N/A   Scattered Clouds
10:35 AM 41.0 °F 33.5 °F 29.1 °F 63% 30.62 in 10.0 mi North 13.8 mph 19.6 mph N/A   Clear
10:55 AM 41.7 °F 34.1 °F 28.9 °F 61% 30.61 in 10.0 mi North 15.0 mph 21.9 mph N/A   Clear
11:15 AM 42.4 °F 35.0 °F 28.9 °F 59% 30.61 in 10.0 mi North 15.0 mph 19.6 mph N/A   Clear
11:35 AM 42.8 °F 35.1 °F 28.8 °F 58% 30.61 in 10.0 mi North 16.1 mph 21.9 mph N/A   Clear
11:55 AM 44.6 °F 37.2 °F 29.3 °F 55% 30.60 in 10.0 mi North 17.3 mph - N/A   Clear
12:15 PM 46.6 °F - 30.0 °F 53% 30.60 in 10.0 mi NNE 18.4 mph 23.0 mph N/A   Clear
12:35 PM 46.9 °F - 28.4 °F 49% 30.59 in 10.0 mi North 19.6 mph 29.9 mph N/A   Clear
12:55 PM 48.2 °F - 29.5 °F 48% 30.58 in 10.0 mi North 16.1 mph 24.2 mph N/A   Clear
1:15 PM 48.4 °F - 30.2 °F 49% 30.57 in 10.0 mi NNW 16.1 mph 24.2 mph N/A   Clear
1:35 PM 48.4 °F - 29.1 °F 47% 30.57 in 10.0 mi North 16.1 mph 24.2 mph N/A   Scattered Clouds
1:55 PM 50.2 °F - 30.2 °F 46% 30.56 in 10.0 mi North 17.3 mph 26.5 mph N/A   Clear
2:15 PM 50.0 °F - 28.2 °F 43% 30.55 in 10.0 mi NNW 18.4 mph 27.6 mph N/A   Scattered Clouds
2:35 PM 50.0 °F - 28.4 °F 43% 30.55 in 10.0 mi North 20.7 mph 25.3 mph N/A   Scattered Clouds
2:55 PM 50.7 °F - 29.5 °F 44% 30.54 in 10.0 mi North 12.7 mph 26.5 mph N/A   Scattered Clouds
3:15 PM 52.3 °F - 29.5 °F 42% 30.53 in 10.0 mi North 16.1 mph 23.0 mph N/A   Scattered Clouds
3:35 PM 52.7 °F - 26.6 °F 36% 30.51 in 10.0 mi North 16.1 mph 27.6 mph N/A   Scattered Clouds
3:55 PM 52.3 °F - 25.2 °F 35% 30.51 in 10.0 mi North 23.0 mph 28.8 mph N/A   Scattered Clouds
4:15 PM 53.2 °F - 25.0 °F 33% 30.50 in 10.0 mi North 15.0 mph 27.6 mph N/A   Clear
4:35 PM 53.6 °F - 26.1 °F 35% 30.49 in 10.0 mi North 17.3 mph 26.5 mph N/A   Scattered Clouds
4:55 PM 53.6 °F - 24.6 °F 33% 30.48 in 10.0 mi North 15.0 mph 25.3 mph N/A   Scattered Clouds
5:15 PM 54.0 °F - 25.3 °F 33% 30.48 in 10.0 mi North 18.4 mph 24.2 mph N/A   Scattered Clouds
5:35 PM 53.4 °F - 24.1 °F 32% 30.47 in 10.0 mi North 15.0 mph 24.2 mph N/A   Scattered Clouds
5:55 PM 53.2 °F - 24.6 °F 33% 30.47 in 10.0 mi North 16.1 mph 21.9 mph N/A   Scattered Clouds
6:15 PM 53.1 °F - 24.4 °F 33% 30.46 in 10.0 mi North 13.8 mph 20.7 mph N/A   Clear
7:15 PM 51.8 °F - 25.2 °F 36% 30.45 in 10.0 mi NNE 13.8 mph 18.4 mph N/A   Clear
7:35 PM 50.9 °F - 24.4 °F 36% 30.45 in 10.0 mi NNE 13.8 mph 17.3 mph N/A   Clear
7:55 PM 49.8 °F - 26.8 °F 41% 30.45 in 10.0 mi North 6.9 mph - N/A   Clear
8:15 PM 48.6 °F - 26.6 °F 42% 30.45 in 10.0 mi North 8.1 mph - N/A   Clear
8:35 PM 45.9 °F 42.9 °F 28.9 °F 52% 30.44 in 10.0 mi NNE 5.8 mph - N/A   Clear
8:55 PM 43.9 °F 41.3 °F 30.2 °F 59% 30.44 in 10.0 mi NNE 4.6 mph - N/A   Clear
9:15 PM 42.1 °F 38.4 °F 30.0 °F 62% 30.44 in 10.0 mi NNE 5.8 mph - N/A   Clear
9:35 PM 41.2 °F 37.3 °F 30.2 °F 65% 30.45 in 10.0 mi NNE 5.8 mph - N/A   Clear
9:55 PM 40.5 °F 36.5 °F 29.5 °F 65% 30.45 in 10.0 mi NNE 5.8 mph - N/A   Clear
10:15 PM 40.1 °F 36.9 °F 28.8 °F 64% 30.44 in 10.0 mi North 4.6 mph - N/A   Clear
10:35 PM 40.5 °F 36.5 °F 28.0 °F 61% 30.44 in 10.0 mi North 5.8 mph - N/A   Scattered Clouds
10:55 PM 40.3 °F 35.5 °F 28.2 °F 62% 30.44 in 10.0 mi NNE 6.9 mph - N/A   Scattered Clouds
11:15 PM 39.6 °F 35.4 °F 28.0 °F 63% 30.43 in 10.0 mi NNE 5.8 mph - N/A   Scattered Clouds
11:35 PM 39.4 °F 35.2 °F 27.5 °F 62% 30.42 in 10.0 mi NNE 5.8 mph - N/A   Clear
11:55 PM 38.7 °F 36.3 °F 27.1 °F 63% 30.42 in 10.0 mi North 3.5 mph - N/A   Clear